Location: Paddlesworth
(51.1000°N, 1.1333°E)
Time: 07:44:04
(UTC+00:00)

Okean 1 - Pass Details

Date: 28 September 2021
Orbit: 539 x 552 km, 82.5° (Epoch: 24 October)

Event Time Altitude Azimuth Distance (km) Brightness Sun altitude
Rises 03:03:35 0° 132° (SE) 2,689 7.0 -25.9°
Reaches altitude 10° 03:07:37 10° 90° (E) 1,808 6.7 -25.4°
Maximum altitude 03:08:16 10° 81° (E) 1,787 6.8 -25.3°
Drops below altitude 10° 03:08:55 10° 71° (ENE) 1,811 6.9 -25.2°
Sets 03:12:59 0° 30° (NNE) 2,715 7.8 -24.7°
